JES3071 SARI-SABE

Flight info

Callsign JES3071
Flight time N/A
Altitude 36000
Route NAIDE1C NAIDE UT667 GEMSU UN785 GUA UZ129 PAGON PAGON8Q
Aircraft A320/M-SDE3FGHIRWY/LB1

Departure

Time 2026-04-15 19:25
Airport Cataratas Del Iguazú International Airport (SARI)

Arrival

Time N/A
Airport Aeroparque Jorge Newbery (SABE)
Time Latitude Longitude Altitude Speed Heading
2026-04-15 18:45 -25.73238 -54.47640 929 ft 0 kts 26°
2026-04-15 19:07 -25.73239 -54.47641 927 ft 2 kts 26°
2026-04-15 19:07 -25.73254 -54.47649 930 ft 2 kts 26°
2026-04-15 19:08 -25.73269 -54.47658 927 ft 2 kts 25°
2026-04-15 19:08 -25.73284 -54.47658 927 ft 2 kts 305°
2026-04-15 19:08 -25.73293 -54.47643 928 ft 2 kts 294°
2026-04-15 19:08 -25.73296 -54.47635 928 ft 0 kts 294°
2026-04-15 19:11 -25.73295 -54.47635 929 ft 0 kts 294°
2026-04-15 19:12 -25.73295 -54.47636 928 ft 0 kts 294°
2026-04-15 19:16 -25.73294 -54.47638 928 ft 1 kts 294°
2026-04-15 19:16 -25.73288 -54.47654 927 ft 3 kts 296°
2026-04-15 19:16 -25.73274 -54.47681 930 ft 5 kts 301°
2026-04-15 19:16 -25.73255 -54.47723 927 ft 7 kts 294°
2026-04-15 19:17 -25.73233 -54.47780 928 ft 9 kts 293°
2026-04-15 19:17 -25.73226 -54.47854 929 ft 11 kts 255°
2026-04-15 19:17 -25.73227 -54.47940 929 ft 12 kts 265°
2026-04-15 19:17 -25.73235 -54.48041 929 ft 14 kts 265°
2026-04-15 19:18 -25.73244 -54.48147 929 ft 10 kts 265°
2026-04-15 19:18 -25.73248 -54.48205 928 ft 7 kts 265°
2026-04-15 19:18 -25.73255 -54.48286 930 ft 2 kts 264°
2026-04-15 19:19 -25.73255 -54.48288 930 ft 0 kts 264°
2026-04-15 19:21 -25.73255 -54.48289 930 ft 1 kts 264°
2026-04-15 19:21 -25.73257 -54.48302 930 ft 3 kts 264°
2026-04-15 19:21 -25.73259 -54.48329 929 ft 5 kts 263°
2026-04-15 19:21 -25.73254 -54.48464 931 ft 33 kts 287°
2026-04-15 19:22 -25.73164 -54.48689 929 ft 20 kts 294°
2026-04-15 19:22 -25.73097 -54.48782 929 ft 10 kts 288°
2026-04-15 19:22 -25.73125 -54.48788 927 ft 5 kts 129°
2026-04-15 19:22 -25.73132 -54.48772 930 ft 0 kts 117°
2026-04-15 19:24 -25.73136 -54.48763 930 ft 6 kts 116°
2026-04-15 19:24 -25.73248 -54.48473 927 ft 76 kts 113°
2026-04-15 19:24 -25.73554 -54.47753 928 ft 130 kts 116°
2026-04-15 19:24 -25.73998 -54.46691 942 ft 171 kts 116°
2026-04-15 19:25 -25.74516 -54.45570 1626 ft 162 kts 118°
2026-04-15 19:25 -25.75033 -54.44395 2146 ft 169 kts 112°
2026-04-15 19:25 -25.75523 -54.43212 2746 ft 175 kts 110°
2026-04-15 19:25 -25.76038 -54.41911 3139 ft 195 kts 108°
2026-04-15 19:26 -25.76620 -54.40455 3461 ft 218 kts 109°
2026-04-15 19:26 -25.77576 -54.39029 3667 ft 251 kts 143°
2026-04-15 19:26 -25.79290 -54.38315 4015 ft 279 kts 170°
2026-04-15 19:26 -25.81290 -54.38136 4775 ft 293 kts 180°
2026-04-15 19:27 -25.83343 -54.38140 5729 ft 297 kts 182°
2026-04-15 19:27 -25.85418 -54.38162 6656 ft 299 kts 182°
2026-04-15 19:27 -25.87505 -54.38196 7527 ft 301 kts 189°
2026-04-15 19:27 -25.89491 -54.38880 8304 ft 300 kts 212°
2026-04-15 19:28 -25.91279 -54.40080 9112 ft 302 kts 215°
2026-04-15 19:28 -25.93051 -54.41299 9889 ft 305 kts 215°
2026-04-15 19:28 -25.94889 -54.42573 10313 ft 322 kts 216°
2026-04-15 19:28 -25.96855 -54.43945 10501 ft 345 kts 215°
2026-04-15 19:29 -25.98969 -54.45413 10650 ft 368 kts 215°
2026-04-15 19:29 -26.01163 -54.46927 11068 ft 377 kts 215°
2026-04-15 19:29 -26.03425 -54.48478 11669 ft 382 kts 215°
2026-04-15 19:29 -26.05679 -54.50021 12284 ft 385 kts 215°
2026-04-15 19:30 -26.07986 -54.51596 12914 ft 388 kts 215°
2026-04-15 19:30 -26.10276 -54.53164 13506 ft 391 kts 216°
2026-04-15 19:30 -26.12612 -54.54768 14035 ft 395 kts 216°
2026-04-15 19:30 -26.14957 -54.56384 14577 ft 398 kts 216°
2026-04-15 19:31 -26.17316 -54.58010 15122 ft 400 kts 216°
2026-04-15 19:31 -26.19696 -54.59650 15674 ft 403 kts 216°
2026-04-15 19:31 -26.22088 -54.61300 16222 ft 406 kts 216°
2026-04-15 19:31 -26.24496 -54.62962 16775 ft 408 kts 216°
2026-04-15 19:32 -26.26916 -54.64636 17325 ft 411 kts 216°
2026-04-15 19:32 -26.29351 -54.66320 17874 ft 413 kts 216°
2026-04-15 19:32 -26.31800 -54.68014 18398 ft 415 kts 216°
2026-04-15 19:32 -26.34260 -54.69715 18877 ft 417 kts 216°
2026-04-15 19:33 -26.36734 -54.71426 19343 ft 419 kts 216°
2026-04-15 19:33 -26.39221 -54.73150 19802 ft 422 kts 216°
2026-04-15 19:33 -26.41719 -54.74879 20256 ft 424 kts 216°
2026-04-15 19:33 -26.44196 -54.76595 20692 ft 426 kts 216°
2026-04-15 19:34 -26.46717 -54.78341 21136 ft 428 kts 216°
2026-04-15 19:34 -26.49256 -54.80099 21582 ft 430 kts 216°
2026-04-15 19:34 -26.51802 -54.81865 21993 ft 432 kts 216°
2026-04-15 19:34 -26.54365 -54.83647 22400 ft 434 kts 216°
2026-04-15 19:35 -26.56938 -54.85434 22780 ft 437 kts 216°
2026-04-15 19:35 -26.59526 -54.87229 23174 ft 439 kts 216°
2026-04-15 19:35 -26.62126 -54.89033 23532 ft 441 kts 216°
2026-04-15 19:35 -26.64739 -54.90847 23836 ft 443 kts 216°
2026-04-15 19:36 -26.67363 -54.92671 24123 ft 445 kts 216°
2026-04-15 19:36 -26.69999 -54.94509 24424 ft 448 kts 216°
2026-04-15 19:36 -26.72644 -54.96357 24715 ft 450 kts 216°
2026-04-15 19:36 -26.75304 -54.98217 25007 ft 452 kts 216°
2026-04-15 19:37 -26.77975 -55.00084 25294 ft 454 kts 216°
2026-04-15 19:37 -26.80664 -55.01963 25594 ft 456 kts 216°
2026-04-15 19:37 -26.83361 -55.03850 25882 ft 458 kts 216°
2026-04-15 19:37 -26.86067 -55.05744 26171 ft 460 kts 216°
2026-04-15 19:38 -26.88789 -55.07646 26452 ft 462 kts 216°
2026-04-15 19:38 -26.91524 -55.09555 26744 ft 464 kts 216°
2026-04-15 19:38 -26.94236 -55.11450 27021 ft 466 kts 216°
2026-04-15 19:38 -26.96989 -55.13375 27322 ft 468 kts 216°
2026-04-15 19:39 -26.99751 -55.15309 27689 ft 468 kts 216°
2026-04-15 19:39 -27.02506 -55.17240 28143 ft 466 kts 216°
2026-04-15 19:39 -27.05250 -55.19166 28600 ft 465 kts 216°
2026-04-15 19:39 -27.07984 -55.21087 29065 ft 463 kts 216°
2026-04-15 19:40 -27.10711 -55.23006 29523 ft 462 kts 216°
2026-04-15 19:40 -27.13429 -55.24917 30015 ft 460 kts 216°
2026-04-15 19:40 -27.16139 -55.26822 30393 ft 460 kts 216°
2026-04-15 19:40 -27.18853 -55.28731 30740 ft 460 kts 216°
2026-04-15 19:41 -27.21569 -55.30644 31075 ft 461 kts 216°
2026-04-15 19:41 -27.24293 -55.32560 31408 ft 462 kts 216°
2026-04-15 19:41 -27.27014 -55.34476 31750 ft 463 kts 216°
2026-04-15 19:41 -27.29744 -55.36402 32094 ft 464 kts 216°
2026-04-15 19:42 -27.32440 -55.38310 32432 ft 464 kts 216°
2026-04-15 19:42 -27.35174 -55.40245 32783 ft 465 kts 216°
2026-04-15 19:42 -27.37916 -55.42186 33134 ft 466 kts 216°
2026-04-15 19:42 -27.40661 -55.44126 33486 ft 467 kts 216°
2026-04-15 19:43 -27.43416 -55.46071 33849 ft 467 kts 216°
2026-04-15 19:43 -27.46172 -55.48016 34192 ft 467 kts 216°
2026-04-15 19:43 -27.48922 -55.49961 34551 ft 467 kts 216°
2026-04-15 19:43 -27.51663 -55.51902 34915 ft 466 kts 216°
2026-04-15 19:44 -27.54403 -55.53843 35271 ft 465 kts 217°
2026-04-15 19:44 -27.57139 -55.55785 35607 ft 464 kts 217°
2026-04-15 19:44 -27.59868 -55.57726 35836 ft 465 kts 217°
2026-04-15 19:44 -27.62605 -55.59686 35891 ft 468 kts 218°
2026-04-15 19:45 -27.68072 -55.63754 35891 ft 472 kts 219°
2026-04-15 19:45 -27.73494 -55.67882 35890 ft 472 kts 219°
2026-04-15 19:46 -27.78952 -55.72011 35888 ft 472 kts 219°
2026-04-15 19:46 -27.84425 -55.76123 35888 ft 473 kts 219°
2026-04-15 19:47 -27.89908 -55.80239 35890 ft 473 kts 219°
2026-04-15 19:47 -27.95373 -55.84359 35892 ft 473 kts 219°
2026-04-15 19:48 -28.00849 -55.88501 35892 ft 474 kts 219°
2026-04-15 19:48 -28.06327 -55.92652 35896 ft 474 kts 219°
2026-04-15 19:49 -28.11797 -55.96799 35880 ft 474 kts 219°
2026-04-15 19:49 -28.17277 -56.00962 35890 ft 475 kts 219°
2026-04-15 19:50 -28.22780 -56.05137 35881 ft 475 kts 219°
2026-04-15 19:50 -28.28281 -56.09309 35880 ft 475 kts 220°
2026-04-15 19:51 -28.33773 -56.13495 35875 ft 476 kts 220°
2026-04-15 19:51 -28.39271 -56.17690 35878 ft 477 kts 220°
2026-04-15 19:52 -28.44780 -56.21901 35874 ft 477 kts 220°
2026-04-15 19:52 -28.50256 -56.26083 35869 ft 478 kts 220°
2026-04-15 19:53 -28.55809 -56.30323 35865 ft 478 kts 220°
2026-04-15 19:53 -28.61319 -56.34534 35864 ft 479 kts 220°
2026-04-15 19:54 -28.66848 -56.38777 35860 ft 479 kts 220°
2026-04-15 19:54 -28.72389 -56.43027 35860 ft 480 kts 220°
2026-04-15 19:55 -28.77909 -56.47265 35838 ft 482 kts 220°
2026-04-15 19:55 -28.83497 -56.51577 35830 ft 484 kts 221°
2026-04-15 19:56 -28.89050 -56.55867 35821 ft 486 kts 221°
2026-04-15 19:56 -28.94662 -56.60196 35826 ft 487 kts 221°
2026-04-15 19:57 -29.00285 -56.64544 35830 ft 488 kts 221°
2026-04-15 19:57 -29.05915 -56.68900 35833 ft 489 kts 221°
2026-04-15 19:58 -29.11551 -56.73268 35838 ft 489 kts 221°
2026-04-15 19:58 -29.17190 -56.77651 35845 ft 490 kts 221°
2026-04-15 19:59 -29.22826 -56.82040 35840 ft 490 kts 221°
2026-04-15 19:59 -29.28473 -56.86431 35840 ft 491 kts 221°
2026-04-15 20:00 -29.34083 -56.90795 35832 ft 491 kts 221°
2026-04-15 20:00 -29.39738 -56.95209 35834 ft 492 kts 221°
2026-04-15 20:01 -29.45393 -56.99633 35834 ft 492 kts 221°
2026-04-15 20:01 -29.51044 -57.04052 35834 ft 492 kts 221°
2026-04-15 20:02 -29.56693 -57.08482 35832 ft 492 kts 221°
2026-04-15 20:02 -29.62342 -57.12908 35836 ft 492 kts 221°
2026-04-15 20:03 -29.68000 -57.17345 35835 ft 492 kts 221°
2026-04-15 20:03 -29.73639 -57.21786 35827 ft 491 kts 221°
2026-04-15 20:04 -29.79246 -57.26205 35829 ft 491 kts 221°
2026-04-15 20:04 -29.84885 -57.30650 35829 ft 491 kts 221°
2026-04-15 20:05 -29.90517 -57.35110 35826 ft 491 kts 221°
2026-04-15 20:05 -29.96149 -57.39571 35812 ft 491 kts 221°
2026-04-15 20:06 -30.01787 -57.44035 35806 ft 491 kts 221°
2026-04-15 20:06 -30.07419 -57.48502 35804 ft 491 kts 221°
2026-04-15 20:07 -30.13061 -57.52981 35800 ft 492 kts 221°
2026-04-15 20:07 -30.18700 -57.57471 35804 ft 492 kts 221°
2026-04-15 20:08 -30.24297 -57.61920 35802 ft 493 kts 218°
2026-04-15 20:08 -30.30622 -57.65217 35798 ft 506 kts 201°
2026-04-15 20:09 -30.37365 -57.67546 35799 ft 506 kts 201°
2026-04-15 20:09 -30.44099 -57.69894 35799 ft 505 kts 201°
2026-04-15 20:10 -30.50820 -57.72247 35800 ft 504 kts 201°
2026-04-15 20:10 -30.57540 -57.74593 35799 ft 504 kts 201°
2026-04-15 20:11 -30.64251 -57.76940 35797 ft 503 kts 201°
2026-04-15 20:11 -30.70952 -57.79293 35798 ft 503 kts 201°
2026-04-15 20:12 -30.77613 -57.81616 35798 ft 503 kts 201°
2026-04-15 20:12 -30.84329 -57.83952 35796 ft 502 kts 201°
2026-04-15 20:13 -30.91016 -57.86284 35796 ft 501 kts 201°
2026-04-15 20:13 -30.97685 -57.88627 35794 ft 501 kts 201°
2026-04-15 20:14 -31.04382 -57.90982 35791 ft 508 kts 201°
2026-04-15 20:14 -31.11167 -57.93357 35795 ft 509 kts 200°
2026-04-15 20:15 -31.17957 -57.95731 35806 ft 509 kts 200°
2026-04-15 20:15 -31.24738 -57.98122 35814 ft 508 kts 200°
2026-04-15 20:16 -31.30367 -58.00108 35816 ft 508 kts 200°
2026-04-15 20:16 -31.37143 -58.02489 35819 ft 508 kts 200°
2026-04-15 20:17 -31.43909 -58.04876 35814 ft 508 kts 200°
2026-04-15 20:17 -31.50638 -58.07254 35809 ft 508 kts 200°
2026-04-15 20:18 -31.57399 -58.09658 35802 ft 508 kts 200°
2026-04-15 20:18 -31.64172 -58.12066 35797 ft 509 kts 200°
2026-04-15 20:19 -31.70948 -58.14469 35794 ft 509 kts 199°
2026-04-15 20:19 -31.77728 -58.16878 35798 ft 509 kts 199°
2026-04-15 20:20 -31.84512 -58.19307 35804 ft 509 kts 199°
2026-04-15 20:20 -31.91293 -58.21734 35811 ft 509 kts 199°
2026-04-15 20:21 -31.98071 -58.24157 35816 ft 509 kts 199°
2026-04-15 20:21 -32.04851 -58.26587 35819 ft 509 kts 198°
2026-04-15 20:22 -32.11580 -58.28997 35826 ft 509 kts 198°
2026-04-15 20:22 -32.18349 -58.31431 35833 ft 508 kts 198°
2026-04-15 20:23 -32.25712 -58.34084 35838 ft 508 kts 198°
2026-04-15 20:23 -32.32476 -58.36524 35837 ft 508 kts 198°
2026-04-15 20:24 -32.42565 -58.40166 35839 ft 507 kts 197°
2026-04-15 20:25 -32.49318 -58.42603 35838 ft 507 kts 197°
2026-04-15 20:25 -32.56059 -58.45042 35837 ft 506 kts 197°
2026-04-15 20:26 -32.62783 -58.47481 35847 ft 505 kts 197°
2026-04-15 20:26 -32.69491 -58.49920 35859 ft 504 kts 197°
2026-04-15 20:27 -32.76179 -58.52353 35866 ft 502 kts 197°
2026-04-15 20:27 -32.82856 -58.54787 35870 ft 499 kts 197°
2026-04-15 20:27 -32.86136 -58.55988 35856 ft 487 kts 197°
2026-04-15 20:28 -32.89366 -58.57169 35862 ft 483 kts 197°
2026-04-15 20:28 -32.95780 -58.59520 35815 ft 482 kts 197°
2026-04-15 20:28 -32.98944 -58.60677 35574 ft 481 kts 196°
2026-04-15 20:29 -33.02208 -58.61546 35289 ft 480 kts 187°
2026-04-15 20:29 -33.05530 -58.61983 34509 ft 483 kts 184°
2026-04-15 20:29 -33.08891 -58.62366 33656 ft 488 kts 184°
2026-04-15 20:29 -33.12290 -58.62743 32726 ft 492 kts 184°
2026-04-15 20:30 -33.15711 -58.63124 31807 ft 495 kts 184°
2026-04-15 20:30 -33.19163 -58.63515 30845 ft 500 kts 184°
2026-04-15 20:30 -33.22644 -58.63918 29861 ft 505 kts 185°
2026-04-15 20:30 -33.26158 -58.64329 28682 ft 509 kts 185°
2026-04-15 20:31 -33.29701 -58.64745 27512 ft 513 kts 185°
2026-04-15 20:31 -33.33273 -58.65161 26289 ft 518 kts 185°
2026-04-15 20:31 -33.36873 -58.65579 25136 ft 521 kts 185°
2026-04-15 20:31 -33.40487 -58.66001 24148 ft 521 kts 185°
2026-04-15 20:32 -33.44036 -58.66417 23229 ft 518 kts 185°
2026-04-15 20:32 -33.47607 -58.66835 22289 ft 513 kts 185°
2026-04-15 20:32 -33.51134 -58.67248 21427 ft 505 kts 185°
2026-04-15 20:32 -33.54654 -58.67657 20560 ft 499 kts 185°
2026-04-15 20:33 -33.58089 -58.68056 19903 ft 489 kts 185°
2026-04-15 20:33 -33.61441 -58.68448 19128 ft 483 kts 185°
2026-04-15 20:33 -33.64780 -58.68842 18232 ft 481 kts 185°
2026-04-15 20:33 -33.68091 -58.69233 17312 ft 476 kts 184°
2026-04-15 20:34 -33.71358 -58.69618 16528 ft 468 kts 184°
2026-04-15 20:34 -33.74526 -58.69993 15777 ft 460 kts 184°
2026-04-15 20:34 -33.77677 -58.70364 15048 ft 452 kts 184°
2026-04-15 20:34 -33.80788 -58.70730 14338 ft 445 kts 183°
2026-04-15 20:35 -33.83851 -58.71088 13597 ft 439 kts 183°
2026-04-15 20:35 -33.86877 -58.71442 12838 ft 433 kts 182°
2026-04-15 20:35 -33.89862 -58.71795 12103 ft 428 kts 182°
2026-04-15 20:35 -33.92804 -58.72145 11416 ft 421 kts 182°
2026-04-15 20:36 -33.95698 -58.72470 10930 ft 410 kts 182°
2026-04-15 20:36 -33.98468 -58.72763 10803 ft 389 kts 181°
2026-04-15 20:36 -34.01066 -58.73027 10682 ft 370 kts 181°
2026-04-15 20:36 -34.03575 -58.73275 10566 ft 354 kts 180°
2026-04-15 20:37 -34.05984 -58.73514 10446 ft 340 kts 180°
2026-04-15 20:37 -34.08297 -58.73746 10331 ft 328 kts 180°
2026-04-15 20:37 -34.10531 -58.73974 10214 ft 317 kts 180°
2026-04-15 20:37 -34.12689 -58.74198 10088 ft 307 kts 180°